星链-30226 (STARLINK-30226 )

导读

STARLINK-30226是美国太空探索技术公司星链互联网卫星星座的一员,于2023年8月7日在美国发射升空,属于星链项目的补网卫星。它运行在近地轨道,旨在为全球提供高速低延迟的互联网服务,尤其服务偏远地区,也为马斯克推进星链组网、构建全球卫星互联网系统提供支撑,进一步扩大了星链星座的覆盖规模。

基本信息
目录编号:
57497
目录名称:
STARLINK-30226
国际标识:
2023-113C
轨道中心:
EARTH
卫星名称:
星链-30226
卫星全名:
星链-30226 (STARLINK-30226 )
卫星状态:
在轨 (已飞行1046 天)
发射日期:
2023-08-07 UTC
国别 :
美国 (US)
星等 :
--
轨道信息
数据来源 国际轨道数据 AOE轨道数据
星历时间 2026-06-18T09:15:51+0800
12小时前
查看轨道信息
2026-06-15T05:00:00+0800
3天前
查看轨道信息
半长轴 6861.153km 6861.224km
偏心率 0.0001594 0.000135
轨道倾角 43.005° 43.001°
近地点辐角 277.909° 248.245°
升交点赤经 169.352° 187.298°
平近点角 82.158° 256.286°
近地点 481.922km 482.16km
远地点 484.11km 484.014km
周期 94.266分钟 94.268分钟
每日圈数 15.275911 15.275674
详细信息
固有亮度:
5
最大亮度:
0.3
卫星平台:
Starlink v2.0 mini
覆盖范围:
全球
运营商:
太空探索技术公司
运营商所在国:
美国
制造商(研发单位):
太空探索技术公司
制造商所在国:
美国
使用方式:
暂无
卫星简介
星链(Starlink)计划是由太空探索技术公司(SpaceX)提出的一个巨型低轨卫星互联网星座项目,计划在2019年至2024年间在太空搭建由约1.2万颗卫星组成的“星链”网络,其中1584颗将部署在地球上空550千米处的近地轨道,并从2020年开始工作。该卫星仍在工作。
2D轨道图
3D轨道图
轨道高度分析图
轨道倾角分析图
轨道综合分析图
查看轨道综合分析图